User: anonymous   Login
Location: Carnetin
(48.9010°N, 2.7059°E)
Time: 10:39:38
(UTC+00:00)
Language:

Cosmos 1825 - Orbit

View from above orbital plane
View from above orbital plane
View from above satellite
View from above satellite

Ground track
Ground track

The orbit data is extracted from the following two-line orbital elements,

1 17566U 87024A   22017.85033536  .00002986  00000-0  13210-3 0  9996
2 17566  82.5034  65.9984 0005112 118.9079 241.2670 15.21299449908065
Epoch (UTC): 17 January 2022 20:24:28
Eccentricity: 0.0005112
inclination: 82.5034°
perigee height: 498 km
apogee height: 505 km
right ascension of ascending node: 65.9984°
argument of perigee: 118.9079°
revolutions per day: 15.21299449
mean anomaly at epoch: 241.2670°
orbit number at epoch: 90806

The dashed part of the orbit path shows where the satellite is in the earth's shadow,  

DLR